Location: Aulus
(42.7909°N, 1.3399°E)
Time: 19:50:01
(UTC+00:00)

Intercosmos 25 Rocket - Pass Details

Date: 19 May 2025
Orbit: 436 x 2959 km, 82.6° (Epoch: 21 June)

Event Time Altitude Azimuth Distance (km) Brightness Sun altitude
Exits shadow 22:41:20 52° 217° (SW) 1,056 4.4 -25.2°
Maximum altitude 22:42:37 72° 282° (WNW) 981 4.5 -25.3°
Drops below altitude 10° 22:50:31 10° 6° (N) 3,554 8.3 -25.7°
Sets 22:54:16 0° 9° (N) 4,954 9.2 -25.9°
